Погода Верещагино

Погода Верещагино : погода сейчас, прогноз погоды и архив. Всё, что Вы хотите узнать о погоде Верещагино!

Поиск расширенной информации на нашем сайте:

Другие новости

Новости СМИ2

Главная страница сайта

Новости сайта

02.10.2013

Напоминаем, что на нашем новом сайте вы можете получить высокодетализированные прогнозы погоды по пунктам России, СНГ и мира (включающие важные для авиации метеовеличины, такие как направление и скорость ветра, видимость, явления погоды, количество и форма облачности, нижняя и верхняя граница облачности), а также ознакомиться с разнообразными материалами по авиационной метеорологии и подборкой полезных ссылок на эту тему.

Сайт Метеоцентр.Азия посвящён разработке технологий оптимизации авиаметеорологического обслуживания, включая проектирование и перспективное создание нескольких автоматизированных авиаметеорологических систем:
- система выпуска высокодетальных прогностических карт явлений погоды для нижнего воздушного пространства по России и ближнему зарубежью;
- система верификации прогнозов TAF (выпускаемых синоптиками официальных АМСГ РФ и ближнего зарубежья) и AUTOTAF (выпускаемых сайтом Метеоцентр.Азия) - выявление ошибок, онлайн-сопоставление с фактической погодой METAR, автоматическое внесение коррективов в прогнозы при резком отклонении фактической погоды от прогноза, подсчёт оправдываемости прогнозов по элементам и в целом;
- система обработки, анализа и отображения авиаметеорологической информации для применения провайдерами метеорологической информации.


Погода Верещагино - сегодня

Время (UTC), дата Ветер
(°,м/с) 
Видим.   Явления Облачность Т
(°С)
Тd
(°С)
f(%) Тe
(°С)
Pmin
(гПа)
dP
(гПа)
Po
(мм)
O2
(г/м3)
Тmin Tmax R s Состояние
почвы
06 20.03.17 200 (Ю) 20000 м    8/0 верхняя 
[Cc]
-2.8 -10.3 56 -4  1029.5  0.3  769  314           
09 20.03.17 180 (Ю) 20000 м    9/0 средняя, верхняя 
[Ac lent|Cc]
+1.4 -10.2 42 +1  1029.5  0.1  769  309           
12 20.03.17 180 (Ю) 20000 м    1/0 средняя 
[Ac lent]
+1.6 -10.4 40 +1  1029.4  -0.1  769  309    +3.7       
15 20.03.17 140 (ЮВ) н/о    ясно 
-2.2 -11.9 47 -2  1029.6  0.2  769  314           
18 20.03.17 140 (ЮВ) н/о    ясно 
-4.6 -12.7 53 -4  1029.3  -0.4  769  316           
21 20.03.17 160 (Ю) н/о    3/0 верхняя 
[Ci fib]
-6.9 -13.1 61 -8  1028.5  -0.7  768  319           
00 21.03.17 140 (ЮВ) н/о    10/0 верхняя 
[Ci fib]
-7.8 -13.9 62 -9  1028.3  -0.3  768  320  -8.3      96  равномерный
сухой снег
100% 
03 21.03.17 200 (Ю) 20000 м    3/0 верхняя 
[Ci fib]
-6.3 -13.3 58 -6  1028.1  -0.1  768  318  -8.5         
06 21.03.17 230 (ЮЗ) 20000 м    1/0 верхняя 
[Cs]
-2.3 -12.6 45 -3  1027.9  -0.2  768  313           
09 21.03.17 180 (Ю) 20000 м    1/0 верхняя 
[Ci fib]
+0.4 -13.3 35 +1  1027.7  -0.2  768  310           
12 21.03.17 180 (Ю) 20000 м    3/0 верхняя 
[Ci fib]
-0.1 -13.4 36 +1  1027.6  -0.1  768  311    +0.8       
15 21.03.17 180 (Ю) н/о    1/0 средняя 
[Ac lent]
-4 -14 46 -5  1028  0.4  768  315           
18 21.03.17 180 (Ю) н/о    1/0 верхняя 
[Ci fib]
-10.3 -16.6 60 -12  1027.6  -0.5  768  323           
21 21.03.17 180 (Ю) н/о    ясно 
-13.3 -18.5 65 -13  1027.4  -0.3  767  327           
00 22.03.17 160 (Ю) н/о    10/0 средняя 
[As op]
-14.9 -18.3 75 -15  1028  0.6  768  329  -15.3      95  равномерный
сухой снег
100% 
03 22.03.17 200 (Ю) 20000 м    3/0 верхняя 
[Ci fib]
-12.5 -16 75 -12  1028.6  0.7  768  326           
06 22.03.17 200 (Ю) 20000 м    3/0 верхняя 
[Ci fib]
-4.7 -14.6 46 -6  1028.7  0.2  769  316           
09 22.03.17 200 (Ю) 20000 м    10/0 средняя, верхняя 
[As trans|Cs]
-0.1 -12.8 38 -1  1028.2  -0.5  768  311           
12 22.03.17 180 (Ю) 20000 м    9/0 средняя, верхняя 
[Ac lent|Cc]
-0.3 -12.6 39 1027.6  -0.6  768  311    +0.8       
15 22.03.17 180 (Ю) н/о    6/0 верхняя 
[Ci fib]
-1.6 -13 41 -1  1026.3  -1.3  767  312           
18 22.03.17 180 (Ю) н/о    6/0 верхняя 
[Ci fib]
-3.1 -13.5 44 -4  1025  -1.3  766  313           
21 22.03.17 180 (Ю) н/о    8/0 верхняя 
[Ci fib]
-3.4 -13.5 45 -6  1024.3  -0.7  765  313           
00 23.03.17 180 (Ю) н/о    9/0 верхняя 
[Cc]
-4.4 -12.4 54 -6  1022.9  -1.4  764  314  -5.3      93  равномерный
сухой снег
100% 
03 23.03.17 180 (Ю) 20000 м    1/0 верхняя 
[Ci fib]
-5.8 -13.6 54 -8  1022.2  -0.7  764  316  -6.1         
06 23.03.17 180 (Ю) 20000 м    8/0 средняя, верхняя 
[Ac trans|Cc]
-2.4 -11.6 49 -4  1022.5  0.3  764  312           
Время (UTC), дата Ветер
(°,м/с) 
Видим.   Явления Облачность Т
(°С)
Тd
(°С)
f(%) Тe
(°С)
Pmin
(гПа)
dP
(гПа)
Po
(мм)
O2
(г/м3)
Тmin Tmax R s Состояние
почвы

Для получения пояснительной информации подведите курсор к названию столбца.

ПОГОДА Верещагино - архив

Всё, что Вы хотите узнать о погоде Верещагино - удобно и подробно!

Выберите нужную дату (начиная с 1 января 2015* года) и нажмите кнопку "Найти".
Будут отображены архивные сводки погоды по пункту Верещагино, начиная с указанной даты.


Отображать данные в формате CSV (для использования в таблицах Excel)


Внимание! Наш архив погоды предназначен исключительно для личного некоммерческого использования в познавательных целях. Если Вам необходимы официальные справки о состоянии погоды (для производственных, юридических, коммерческих и т.п. целей), обращайтесь в органы Росгидромета.

*Примечание: данная дата относится к архиву по метеостанциям СССР (Россия, СНГ, Балтия).
Архив по метеостанциям Зарубежной Европы и Азии (кроме Китая) хранится 10 дней, по другим регионам земного шара (Китай, Африка, Америка, Австралия, Океания) - 1 день.

Верещагино - район местоположения метеостанции


Название, широта, долгота, высота метеостанции:
Верещагино 64.2°ш. 87.6°д. 26 м над ур. моря [Российская Федерация]

Дополнительная информация

В oтличие oт бoльшинства пoгoдных сайтoв мы публикуем пoдрoбную метеoинфoрмацию в детальнoм прoфессиoнальнoм фoрмате.

Характеристики температуры и влажнoсти вoздуха измеряются на высoте 2 м в тени вдали oт зданий и деревьев.
Скoрoсть ветра измеряется на высoте 10 м (на урoвне рoста челoвека скoрoсть ветра ниже в 1.5-2 раза). Если метеoстанция нахoдится в гoрoде или в лесу, тo скoрoсть ветра занижена на 2-4 м/с пo сравнению с oткрытым местoм. Скoрoсть ветра над акватoриями крупных рек и oзёр, а также на вершинах хoлмoв на 2-5 м/с выше, чем в oбычных услoвиях.
Атмoсфернoе давление в разных тoчках местнoсти мoжет значительнo oтличаться oт давления на метеoстанции, в зависимoсти oт услoвий рельефа (при пoдъёме на 10 м давление пoнижается примернo на 1 мм рт.ст.).